Temperature
22 22 22 22 22 21 21 21 21 21 21 20 20 20 20 20 19 19 19 19 19 19 19 18 18 18 18 18 18 18 18 18 17 17 17 17 17 17 17 17 17 17 17
22 22 22 22 22 22 22 21 21 21 21 21 20 20 20 20 19 19 19 19 19 19 18 18 18 18 18 18 18 18 18 17 17 17 17 17 17 17 17 17 17 17 17
23 23 22 22 22 22 22 21 21 21 21 21 20 20 20 20 19 19 19 19 19 19 19 18 18 18 18 18 18 17 17 17 17 17 17 17 17 17 17 17 17 17 17
23 23 22 22 22 22 22 21 21 21 21 21 20 20 20 20 20 19 19 19 19 19 18 18 18 18 18 18 18 17 17 17 17 17 17 17 17 16 16 17 17 16 16
23 23 23 23 22 22 22 22 21 21 21 20 20 20 20 20 19 19 19 19 19 19 18 18 18 18 18 18 17 17 17 17 17 17 17 17 17 16 16 16 16 16 16
23 23 23 23 22 22 22 22 21 21 21 20 20 20 20 20 19 19 19 19 19 19 18 18 18 18 18 17 17 17 17 17 17 17 17 17 16 16 16 16 16 16 16
22 23 23 22 22 22 22 22 22 21 21 20 20 20 20 20 19 19 19 19 19 19 18 18 18 18 18 17 17 17 17 17 17 17 16 16 16 16 16 16 16 15 16
22 23 23 23 22 22 22 22 22 21 21 21 20 20 20 19 19 19 19 19 19 19 18 18 18 18 17 17 17 17 17 17 16 16 16 16 16 16 16 16 16 15 15
22 22 22 22 22 22 22 22 22 22 21 21 20 20 20 19 19 19 19 19 19 18 18 18 18 17 17 17 17 17 16 16 16 16 16 16 16 16 16 16 15 15 15
22 22 22 22 22 22 22 22 22 22 21 21 21 20 20 20 19 19 19 18 18 18 18 18 17 17 17 17 16 16 16 16 16 16 16 15 15 15 15 15 15 15 15
22 22 22 22 22 22 22 22 21 21 21 21 20 20 20 19 19 19 19 18 18 18 18 17 17 17 17 16 16 16 16 15 15 15 15 15 15 15 15 15 15 15 15
22 22 22 22 22 21 21 21 21 21 21 20 20 20 19 19 19 18 18 18 18 18 17 17 17 17 16 16 16 16 15 15 15 15 15 15 15 15 15 15 15 15 15
21 21 21 21 21 21 21 21 21 21 20 20 20 19 19 19 19 18 18 18 18 17 17 17 17 16 16 16 16 15 15 15 15 15 15 15 15 15 15 14 14 14 14
21 21 21 21 21 21 21 21 21 20 20 20 19 19 19 19 18 18 18 18 17 17 17 17 16 16 16 16 16 15 15 15 15 15 14 14 14 14 14 14 14 14 14
20 20 20 20 20 21 21 21 20 20 20 19 19 19 19 18 18 18 18 17 17 17 17 16 16 16 16 16 15 15 15 15 15 15 15 14 14 14 14 14 14 14 14
20 20 20 20 20 20 20 20 20 20 19 19 19 19 19 18 18 18 17 17 17 17 16 16 16 16 15 15 15 15 15 15 15 15 14 14 14 14 14 14 13 13 13
20 20 20 20 20 20 20 20 20 19 19 19 19 18 18 18 18 17 17 17 17 16 16 16 16 15 15 15 15 15 15 14 14 14 14 14 14 14 14 13 13 13 13
20 20 20 20 20 19 19 19 19 19 19 18 18 18 18 17 17 17 17 17 16 16 16 16 15 15 15 15 15 14 14 14 14 14 14 14 14 13 13 13 13 13 13
20 20 20 19 19 19 19 19 19 19 19 18 18 18 17 17 17 17 17 16 16 16 15 15 15 15 15 14 14 14 14 14 14 14 14 13 13 13 13 13 13 13 13
19 19 19 19 19 19 19 19 18 18 18 18 18 17 17 17 17 16 16 16 16 15 15 15 15 15 15 14 14 14 14 14 14 14 13 13 13 13 13 13 12 12 12
19 19 19 19 18 18 18 18 18 18 18 17 17 17 16 16 16 16 16 15 15 15 15 15 15 14 14 14 14 14 14 14 14 13 13 13 13 13 12 12 12 12 12
18 18 18 18 18 18 17 17 17 17 17 17 16 16 16 16 16 16 15 15 15 14 14 14 14 14 14 14 14 14 14 13 13 13 13 13 12 12 12 12 12 12 12
17 17 17 17 17 17 17 17 16 16 16 16 16 16 16 15 15 15 14 14 14 14 14 14 14 14 14 13 13 13 13 13 13 13 13 12 12 12 12 12 12 12 11
17 16 16 16 16 16 16 16 16 16 16 15 15 15 15 15 14 14 14 14 14 13 13 13 13 13 13 13 13 13 13 13 12 12 12 12 12 12 12 12 12 11 11
16 16 16 16 16 16 16 15 15 15 15 15 15 14 14 14 14 13 13 13 13 13 13 13 13 13 13 13 13 12 12 12 12 12 12 12 12 12 12 11 11 11 11
16 16 15 15 15 15 15 15 14 14 14 14 14 14 14 13 13 13 13 13 13 12 12 12 12 12 12 12 12 12 12 12 12 12 12 11 11 11 11 11 11 11 11
Wind_Speed
8 7 7 7 7 6 6 6 6 5 4 3 3 2 1 1 0 1 1 2 2 3 3 2 2 2 2 2 2 2 2 1 1 2 2 2 2 1 0 1 1 2 2
6 7 7 7 7 8 7 7 7 6 5 4 3 2 2 1 1 1 0 1 2 3 3 3 2 2 2 2 2 2 2 1 1 2 1 2 2 2 2 1 1 1 1
9 9 9 8 7 7 8 8 7 6 5 5 3 3 2 2 1 1 0 1 1 2 2 3 3 2 2 2 2 2 2 1 1 1 2 1 1 2 2 2 1 0 0
8 8 9 9 9 9 8 7 6 6 5 6 5 5 4 3 3 2 1 0 0 1 2 2 3 3 2 2 2 2 2 3 1 1 1 1 2 1 1 2 2 1 1
9 9 10 10 9 8 7 7 6 5 5 6 7 6 4 3 2 1 1 0 0 0 1 2 2 2 2 2 2 2 2 2 2 2 1 1 1 1 1 1 2 2 2
7 7 8 7 6 6 6 6 7 6 5 6 6 7 6 5 3 2 2 1 0 1 0 1 2 2 2 2 2 2 3 2 2 2 2 2 2 2 2 2 1 2 2
6 6 7 7 8 8 7 7 7 7 6 6 7 7 6 6 6 5 4 3 2 1 2 1 2 2 2 2 2 2 2 2 2 2 2 2 2 2 2 2 1 1 1
5 7 7 7 7 7 7 7 8 7 7 7 7 6 6 5 4 5 4 4 3 3 2 2 2 2 2 2 2 2 2 2 2 2 1 1 1 2 2 3 2 1 1
6 6 6 6 7 7 7 7 8 7 7 8 7 6 6 6 6 5 4 3 3 3 3 3 2 2 2 2 2 2 1 1 1 1 1 1 1 1 2 2 3 3 1
4 4 4 4 5 6 6 5 6 7 6 6 7 7 6 6 5 5 4 4 3 3 3 3 3 2 2 2 2 2 1 2 1 1 1 0 0 0 1 2 2 2 3
4 4 3 4 3 3 4 5 5 5 5 5 5 5 5 5 4 4 4 4 4 4 4 4 3 3 2 2 2 2 1 2 1 0 1 0 0 0 0 1 1 2 3
4 3 3 3 3 3 3 4 5 5 5 5 4 4 4 4 4 4 4 4 4 4 4 4 3 3 3 3 3 3 2 2 1 1 1 1 1 0 1 1 1 2 2
3 3 3 3 3 2 3 3 3 4 4 4 5 4 4 4 5 5 4 4 4 4 4 4 4 3 3 3 3 3 3 2 2 2 2 2 1 1 1 1 1 1 1
3 3 3 3 3 3 3 3 2 2 3 4 4 5 5 5 5 4 4 3 4 4 4 4 4 4 4 3 3 3 3 2 2 2 2 2 2 3 2 2 2 2 2
2 3 4 3 3 2 2 2 2 2 3 4 4 4 4 4 3 3 3 3 4 4 4 4 4 3 3 4 4 4 3 3 2 2 2 3 3 3 3 2 2 2 2
3 3 3 3 3 3 3 2 2 2 2 3 3 3 3 3 3 3 3 3 3 3 3 3 4 4 4 4 5 5 3 3 3 2 2 2 3 3 3 3 4 4 3
4 4 4 4 4 4 4 4 3 2 3 2 2 2 3 3 3 3 3 3 4 3 3 4 4 4 4 5 5 5 4 3 3 3 2 2 1 1 1 1 1 2 3
4 4 4 4 4 3 3 3 3 3 3 2 2 3 3 3 3 3 3 3 3 3 4 4 4 4 4 5 5 5 3 3 3 3 3 3 2 2 2 1 1 1 2
4 4 4 4 3 3 3 3 3 3 2 2 3 3 3 3 3 3 3 3 3 3 3 3 4 4 5 5 6 5 3 3 3 3 3 3 3 2 2 2 1 2 3
2 2 2 2 2 1 3 4 3 3 3 3 3 3 3 3 4 3 3 3 3 3 3 3 3 4 5 5 6 6 3 3 3 3 3 4 4 4 4 3 3 3 4
2 3 3 3 1 1 3 3 2 2 3 2 2 2 3 4 3 3 2 2 3 3 3 2 2 3 4 4 5 6 4 4 4 3 3 4 5 5 5 5 5 6 4
4 3 3 3 2 2 3 2 0 2 1 2 2 3 2 2 3 3 2 2 2 2 2 2 2 2 3 4 4 5 6 5 4 4 4 4 5 5 5 4 4 4 2
4 3 4 4 3 3 3 2 1 1 0 1 1 2 2 2 2 3 2 2 2 2 2 2 3 3 3 3 4 4 6 6 4 4 5 4 5 4 3 4 4 3 2
3 3 4 4 3 2 2 0 1 1 1 1 0 1 2 2 1 2 2 3 3 3 3 3 4 4 3 3 2 2 3 4 4 3 3 3 3 2 3 2 3 3 3
2 3 3 2 1 2 2 2 2 2 2 1 1 1 2 2 2 1 2 3 3 5 5 5 5 4 5 5 5 3 3 3 3 2 1 0 1 2 2 2 3 3 3
2 2 2 1 1 2 3 3 2 2 2 1 1 1 1 1 1 1 1 2 2 4 6 6 5 4 5 4 3 3 3 3 4 3 2 2 3 4 4 4 3 3 4
Wind_Direction
216 201 192 182 176 180 184 187 185 183 161 148 155 160 196 213 197 199 203 194 180 161 146 136 118 116 121 126 120 120 100 75 84 79 25 9 17 32 264 241 235 231 216
198 197 193 185 183 186 190 189 187 180 175 171 163 154 151 167 190 212 179 202 188 172 158 143 136 131 125 107 103 110 112 78 78 112 85 9 1 15 31 42 214 230 201
201 199 193 194 188 194 196 198 192 182 179 164 134 114 88 60 54 18 297 275 198 173 155 149 144 137 140 144 132 132 136 142 78 93 134 143 237 326 360 12 22 3 215
203 197 192 191 196 201 193 191 185 180 174 163 161 160 165 182 204 207 211 273 173 162 167 154 144 140 144 148 157 143 154 150 155 87 91 148 164 170 328 343 357 359 301
199 195 193 194 198 195 186 182 176 180 176 174 177 174 174 185 182 168 153 165 359 235 186 158 142 139 145 153 152 140 144 152 160 165 153 127 105 157 177 278 321 339 315
192 188 186 186 188 183 179 174 174 188 186 182 181 181 180 178 170 187 195 205 239 286 246 155 149 158 159 166 168 154 150 158 154 156 160 164 171 185 183 216 265 300 312
184 182 175 182 186 182 184 181 182 196 193 186 190 190 188 186 189 197 196 192 202 223 231 190 165 168 172 167 155 148 153 165 161 175 182 186 203 187 173 172 211 277 318
175 182 183 181 181 183 185 183 187 198 194 192 198 193 187 196 205 203 195 194 204 212 198 175 173 178 172 165 149 149 168 161 168 186 185 189 218 201 191 176 170 207 333
174 171 174 180 182 181 186 187 186 193 194 194 194 189 193 199 204 201 193 193 202 201 183 171 168 180 169 160 148 149 173 155 168 184 175 193 234 203 205 184 181 176 229
172 169 170 174 187 185 182 182 188 193 191 190 194 196 196 198 198 191 191 193 196 189 171 164 166 172 170 155 146 156 167 151 186 180 139 174 242 192 175 166 173 185 192
181 177 180 170 161 156 164 176 187 185 180 188 191 190 189 186 183 185 189 188 184 181 178 178 171 171 169 163 154 169 159 162 190 184 155 215 173 152 167 147 153 173 177
172 161 151 136 131 145 162 182 189 190 190 187 180 185 184 172 177 194 196 188 185 184 182 169 164 171 174 173 169 183 182 176 191 206 163 227 197 193 224 175 180 185 188
150 135 127 136 146 165 174 188 200 200 188 174 176 184 187 184 196 207 200 190 184 178 173 167 173 184 183 181 186 179 184 187 200 207 199 225 196 228 233 200 190 194 177
144 146 147 153 164 179 185 195 214 203 180 175 182 192 197 199 204 209 193 187 182 181 182 182 185 189 184 182 181 177 181 182 186 204 214 221 209 220 212 200 195 173 148
165 169 170 172 167 169 177 188 199 195 184 176 187 202 200 191 187 188 186 181 182 188 182 178 183 188 188 194 187 191 193 191 204 227 233 233 217 208 201 199 194 171 166
199 190 180 177 184 190 191 180 181 176 152 171 191 186 173 177 183 187 184 178 181 179 168 175 181 194 208 201 193 189 192 197 205 228 257 258 239 221 210 204 195 183 187
213 206 203 201 205 205 196 193 190 161 145 156 162 162 174 177 180 179 168 183 190 185 185 191 189 198 212 202 197 194 192 204 215 224 247 254 250 221 215 215 212 220 220
217 220 214 213 212 206 195 177 152 144 154 168 178 175 174 185 182 170 180 192 193 193 199 204 205 206 217 207 206 206 199 212 229 230 226 223 240 227 203 196 302 281 268
211 214 211 208 193 187 179 151 146 150 160 195 206 196 187 186 179 188 198 196 190 200 205 205 206 212 228 217 210 199 199 216 236 236 229 221 225 224 183 164 252 293 297
187 175 156 125 136 170 143 141 166 174 204 219 221 202 190 187 188 198 201 196 191 207 208 215 220 222 234 230 220 201 199 216 233 242 239 230 230 222 192 194 205 242 268
88 99 109 105 120 138 131 146 156 211 233 221 199 190 191 189 184 185 190 185 188 189 198 215 240 241 243 239 227 209 202 213 224 235 245 246 237 232 214 207 215 231 243
64 81 92 79 58 85 110 110 203 271 253 185 182 192 191 190 182 175 186 177 173 181 200 211 259 269 258 239 236 225 213 204 213 231 239 242 238 239 227 221 230 232 228
58 66 92 86 65 69 93 104 300 322 348 174 200 195 168 172 164 168 175 175 178 192 228 235 251 267 265 255 242 235 222 213 215 231 236 243 249 243 243 240 235 223 216
66 68 76 74 53 38 54 88 323 97 126 168 197 136 144 143 143 159 175 186 196 210 224 240 250 262 261 255 252 251 240 224 223 240 248 248 247 241 240 243 231 224 223
75 93 98 88 47 34 19 15 27 81 103 99 94 131 154 155 165 178 203 211 219 215 217 228 228 233 245 245 229 220 226 222 219 192 180 220 255 256 262 257 248 241 240
97 91 90 72 22 20 8 3 27 84 110 100 106 165 166 150 166 169 305 293 252 252 234 224 221 238 243 244 235 230 221 212 180 161 208 229 238 245 249 253 256 247 240
Height
1513 1516 1518 1520 1522 1524 1526 1527 1528 1530 1531 1532 1533 1534 1535 1535 1536 1537 1537 1537 1538 1538 1538 1538 1538 1538 1539 1539 1539 1540 1540 1540 1540 1540 1541 1541 1541 1541 1541 1542 1542 1543 1544
1511 1513 1516 1518 1520 1522 1524 1526 1527 1529 1530 1531 1533 1534 1535 1535 1536 1537 1537 1537 1537 1538 1538 1538 1538 1538 1538 1538 1539 1539 1539 1539 1540 1540 1540 1540 1541 1540 1541 1541 1541 1542 1542
1509 1511 1513 1515 1518 1520 1522 1524 1526 1528 1529 1531 1532 1533 1534 1534 1535 1536 1536 1537 1537 1537 1537 1537 1537 1537 1537 1537 1538 1538 1539 1539 1539 1540 1540 1540 1540 1540 1540 1540 1540 1540 1541
1506 1508 1511 1513 1516 1518 1520 1523 1525 1527 1528 1530 1531 1531 1532 1533 1533 1534 1535 1535 1536 1536 1536 1536 1536 1536 1536 1536 1537 1537 1537 1538 1538 1538 1539 1540 1539 1539 1539 1540 1539 1539 1539
1503 1505 1508 1510 1513 1516 1519 1521 1523 1525 1527 1528 1529 1530 1531 1531 1532 1533 1533 1534 1535 1535 1535 1535 1535 1535 1535 1535 1536 1536 1536 1536 1537 1537 1538 1538 1538 1538 1538 1537 1538 1538 1538
1500 1502 1506 1508 1511 1514 1516 1519 1521 1523 1525 1526 1527 1528 1529 1529 1530 1531 1532 1533 1533 1533 1534 1534 1534 1534 1534 1534 1535 1535 1535 1535 1536 1536 1536 1537 1537 1537 1536 1536 1536 1536 1536
1497 1500 1503 1505 1508 1511 1514 1516 1518 1520 1521 1523 1524 1525 1526 1528 1528 1529 1530 1531 1531 1532 1532 1533 1533 1533 1533 1533 1533 1534 1534 1534 1534 1535 1535 1535 1535 1535 1535 1535 1534 1534 1534
1495 1498 1501 1503 1506 1509 1512 1513 1515 1517 1518 1520 1521 1523 1524 1525 1526 1527 1528 1529 1529 1530 1531 1531 1531 1531 1531 1531 1532 1532 1532 1533 1533 1533 1533 1533 1533 1533 1534 1534 1533 1533 1532
1494 1496 1499 1502 1504 1506 1509 1511 1512 1513 1515 1517 1519 1520 1521 1523 1524 1525 1526 1526 1527 1528 1529 1529 1529 1530 1530 1530 1530 1530 1530 1531 1531 1531 1531 1531 1531 1531 1532 1532 1532 1532 1531
1492 1495 1497 1499 1502 1504 1506 1508 1509 1510 1513 1514 1516 1517 1518 1519 1521 1522 1523 1524 1525 1526 1526 1526 1526 1527 1528 1528 1528 1528 1529 1529 1529 1529 1529 1529 1529 1529 1530 1530 1530 1530 1530
1491 1493 1496 1498 1500 1502 1504 1506 1507 1508 1511 1512 1513 1515 1516 1517 1518 1520 1521 1522 1523 1523 1524 1524 1524 1525 1525 1526 1526 1526 1527 1527 1527 1527 1527 1527 1527 1527 1527 1527 1527 1527 1527
1491 1493 1495 1497 1499 1500 1502 1504 1505 1506 1508 1510 1511 1512 1513 1515 1516 1517 1518 1519 1520 1521 1521 1522 1522 1522 1523 1523 1523 1523 1524 1524 1525 1525 1525 1525 1525 1525 1525 1525 1525 1525 1525
1490 1492 1494 1496 1497 1499 1501 1502 1503 1504 1506 1507 1508 1509 1511 1512 1513 1514 1515 1516 1517 1518 1519 1519 1520 1520 1521 1521 1522 1522 1522 1522 1522 1522 1523 1523 1523 1522 1522 1522 1522 1523 1523
1489 1491 1492 1494 1496 1498 1499 1500 1501 1502 1504 1505 1506 1508 1508 1509 1510 1511 1511 1513 1514 1515 1516 1517 1517 1518 1518 1518 1519 1520 1520 1520 1520 1520 1520 1520 1520 1520 1520 1520 1520 1520 1520
1488 1489 1491 1493 1494 1496 1497 1498 1499 1500 1501 1503 1504 1504 1505 1505 1507 1508 1509 1511 1512 1512 1513 1514 1515 1515 1515 1516 1516 1517 1517 1517 1517 1518 1518 1517 1517 1517 1517 1517 1518 1518 1518
1486 1488 1489 1491 1492 1493 1495 1496 1497 1498 1499 1499 1500 1502 1502 1503 1504 1505 1507 1508 1509 1509 1510 1511 1511 1512 1513 1513 1514 1514 1515 1514 1515 1515 1515 1515 1515 1514 1515 1515 1515 1516 1515
1484 1486 1487 1489 1490 1492 1493 1494 1495 1496 1497 1497 1498 1499 1500 1500 1501 1503 1504 1505 1506 1507 1507 1508 1508 1509 1510 1510 1511 1511 1512 1512 1512 1512 1512 1512 1512 1512 1512 1513 1513 1513 1513
1482 1484 1485 1487 1488 1490 1491 1491 1492 1493 1494 1495 1496 1496 1497 1498 1499 1500 1501 1502 1503 1504 1504 1505 1506 1506 1507 1507 1508 1508 1509 1509 1509 1509 1509 1509 1509 1509 1510 1510 1509 1509 1510
1481 1482 1483 1484 1486 1487 1488 1489 1490 1491 1492 1492 1493 1494 1495 1495 1496 1497 1498 1499 1500 1501 1502 1502 1503 1503 1504 1504 1505 1505 1506 1506 1506 1507 1507 1506 1506 1507 1507 1507 1507 1506 1506
1480 1481 1482 1483 1483 1485 1486 1486 1487 1488 1489 1490 1491 1492 1492 1493 1493 1494 1495 1496 1497 1498 1499 1499 1500 1500 1501 1501 1502 1502 1502 1503 1503 1504 1504 1504 1504 1504 1504 1504 1504 1503 1503
1479 1479 1480 1481 1481 1482 1483 1484 1485 1486 1487 1488 1488 1489 1489 1490 1490 1491 1492 1493 1494 1494 1495 1496 1496 1497 1497 1498 1498 1499 1499 1499 1500 1500 1500 1500 1501 1501 1501 1501 1501 1500 1500
1477 1478 1479 1479 1480 1481 1481 1482 1482 1484 1485 1485 1486 1486 1486 1487 1487 1488 1489 1490 1491 1491 1492 1492 1493 1494 1494 1495 1495 1495 1495 1496 1496 1496 1497 1497 1497 1497 1498 1498 1498 1497 1497
1478 1478 1478 1479 1479 1479 1480 1481 1482 1482 1482 1483 1483 1483 1483 1483 1484 1485 1485 1486 1487 1488 1489 1489 1489 1490 1491 1491 1491 1492 1492 1492 1492 1493 1493 1494 1494 1494 1494 1494 1494 1494 1494
1479 1479 1479 1478 1478 1478 1478 1479 1480 1480 1480 1480 1480 1480 1480 1481 1482 1482 1483 1483 1484 1485 1485 1486 1486 1486 1487 1487 1487 1487 1487 1488 1488 1488 1489 1490 1490 1490 1490 1490 1490 1490 1490
1479 1479 1479 1479 1479 1478 1478 1478 1478 1477 1477 1476 1477 1479 1478 1478 1479 1480 1481 1481 1481 1482 1482 1482 1482 1482 1482 1483 1483 1483 1483 1484 1484 1484 1485 1485 1486 1486 1486 1486 1486 1486 1486
1479 1479 1478 1478 1478 1478 1477 1477 1477 1476 1475 1475 1475 1476 1476 1476 1476 1477 1477 1478 1478 1478 1479 1479 1479 1478 1479 1479 1479 1480 1480 1480 1480 1480 1480 1481 1482 1482 1482 1482 1482 1482 1481